Terug naar catalogus

COSMOS 2251 DEB

ActiefVLEO
NORAD 34128·DEBRIS·🇷🇺 Russia

Gelanceerd Jun 16, 1993 vanaf Plesetsk Cosmodrome

Loading…

Volgende Passages (komende 24 uur)

TLE

VersSource: Space-Track

Epoch: Sep 14, 2026, 12:28 UTC

1 34128U 93036KZ  26257.51990053  .00036895  00000-0  16407-2 0  9994
2 34128  73.9869  84.8391 0022718 136.1918 255.2255 15.21097803933337

Volg COSMOS 2251 DEB in realtime met AllMySat

Download on the App Store